Cedar Island, NC

10:44 AM EST on February 14, 2016 (GMT -0500)
Piney Island

Weather History for KNBT - July, 2014

Change the Weather History Date:

Tuesday, July 22, 2014

  Actual Average (KMRH) Record (KMRH)
Temperature  
Mean Temperature 77 °F -  
Max Temperature 79 °F 87 °F 100 °F (1987)
Min Temperature 75 °F 72 °F 59 °F (1966)
Cooling Degree Days 12    
Growing Degree Days 27 (Base 50)    
Moisture  
Dew Point 76 °F    
Average Humidity 95    
Maximum Humidity 100    
Minimum Humidity 90    
Precipitation  
Precipitation 0.00 in - - ()
Sea Level Pressure  
Sea Level Pressure 30.12 in    
Wind  
Wind Speed 7 mph (SSE)    
Max Wind Speed 12 mph    
Max Gust Speed 20 mph    
Visibility 9 miles    
Events Rain    
Averages and records for this station are not official NWS values.
T = Trace of Precipitation, MM = Missing Value Source: NWS Daily Summary

Daily Weather History Graph

Daily Weather History Graph

Search for Another Location

Airport or City:

Trip Planner

Search our weather history database for the weather conditions in past years. The results will help you decide how hot, cold, wet, or windy it might be!

Date:

Astronomy

Jul. 22, 2014 Rise Set
Actual Time 6:07 AM EDT 8:16 PM EDT
Civil Twilight 5:39 AM EDT 8:44 PM EDT
Nautical Twilight 5:04 AM EDT 9:19 PM EDT
Astronomical Twilight 4:26 AM EDT 9:57 PM EDT
Moon 2:37 AM EDT (7/22) 4:53 PM EDT (7/22)
Length of Visible Light 15h 05m
Length of Day
14h 08m
Waning Crescent, 16% of the Moon is Illuminated
Jul 22
Waning Crescent
Jul 26
New
Aug 3
First Quarter
Aug 10
Full
Aug 17
Last Quarter

Hourly Weather History & Observations

Time (EDT) Temp. Dew Point Humidity Pressure Visibility Wind Dir Wind Speed Gust Speed Precip Events Conditions
12:56 AM 78.1 °F 75.9 °F 93% 30.14 in 7.0 mi ENE 6.9 mph - N/A Rain Light Rain
1:14 AM 78.1 °F 77.0 °F 96% 30.12 in 10.0 mi ENE 6.9 mph - N/A   Overcast
1:44 AM 79.0 °F 77.0 °F 94% 30.11 in 10.0 mi East 3.5 mph - N/A   Scattered Clouds
1:56 AM 78.1 °F 75.9 °F 93% 30.12 in 10.0 mi NNE 4.6 mph - N/A   Partly Cloudy
2:56 AM 79.0 °F 77.0 °F 94% 30.11 in 10.0 mi NE 6.9 mph - N/A   Scattered Clouds
3:49 AM 78.1 °F 77.0 °F 96% 30.09 in 10.0 mi ESE 6.9 mph - N/A   Overcast
3:56 AM 78.1 °F 77.0 °F 96% 30.10 in 10.0 mi ESE 3.5 mph - N/A   Overcast
4:56 AM 75.9 °F 73.9 °F 94% 30.11 in 10.0 mi South 4.6 mph - N/A   Scattered Clouds
5:56 AM 75.9 °F 75.0 °F 97% 30.11 in 10.0 mi SSE 3.5 mph - N/A   Overcast
6:56 AM 77.0 °F 75.9 °F 96% 30.12 in 10.0 mi ESE 4.6 mph - N/A   Clear
7:56 AM 78.1 °F 75.9 °F 93% 30.14 in 10.0 mi ESE 6.9 mph - N/A   Clear
8:56 AM 79.0 °F 75.9 °F 90% 30.14 in 10.0 mi South 4.6 mph - N/A   Clear
9:34 AM 79.0 °F 75.9 °F 90% 30.13 in 10.0 mi Calm Calm - N/A   Mostly Cloudy
9:56 AM 78.1 °F 75.9 °F 93% 30.15 in 10.0 mi East 6.9 mph - N/A   Overcast
10:42 AM 78.1 °F 75.9 °F 93% 30.14 in 10.0 mi SE 8.1 mph - N/A   Overcast
10:56 AM 78.1 °F 75.9 °F 93% 30.15 in 10.0 mi SE 9.2 mph - N/A   Overcast
11:56 AM 78.1 °F 75.9 °F 93% 30.17 in 6.0 mi South 9.2 mph - N/A Rain Light Rain
12:08 PM 77.0 °F 75.9 °F 96% 30.15 in 7.0 mi SSE 8.1 mph - N/A Rain Light Rain
1:15 PM 78.1 °F 78.1 °F 100% 30.14 in 2.0 mi SSE 8.1 mph - N/A Rain Heavy Rain
1:36 PM 78.1 °F 78.1 °F 100% 30.12 in 5.0 mi South 10.4 mph - N/A Rain Light Rain
1:56 PM 78.1 °F 77.0 °F 96% 30.13 in 10.0 mi South 9.2 mph - N/A Rain Light Rain
2:16 PM 78.1 °F 77.0 °F 96% 30.12 in 10.0 mi South 8.1 mph - N/A   Mostly Cloudy
2:23 PM 79.0 °F 78.1 °F 97% 30.12 in 10.0 mi South 6.9 mph - N/A   Mostly Cloudy
2:49 PM 79.0 °F 78.1 °F 97% 30.11 in 10.0 mi South 6.9 mph - N/A   Mostly Cloudy
2:56 PM 79.0 °F 77.0 °F 94% 30.13 in 10.0 mi South 8.1 mph - N/A   Mostly Cloudy
3:27 PM 78.1 °F 75.9 °F 93% 30.11 in 10.0 mi South 9.2 mph - N/A   Scattered Clouds
3:56 PM 78.1 °F 75.9 °F 93% 30.13 in 10.0 mi South 10.4 mph - N/A   Mostly Cloudy
4:56 PM 78.1 °F 75.9 °F 93% 30.12 in 10.0 mi SSE 11.5 mph - N/A   Scattered Clouds
5:08 PM 78.1 °F 75.0 °F 90% 30.10 in 10.0 mi South 8.1 mph - N/A   Mostly Cloudy
5:42 PM 78.1 °F 75.9 °F 93% 30.09 in 10.0 mi South 8.1 mph - N/A   Scattered Clouds
5:56 PM 78.1 °F 75.9 °F 93% 30.11 in 9.0 mi SSW 8.1 mph - N/A   Mostly Cloudy
6:56 PM 78.1 °F 75.9 °F 93% 30.11 in 10.0 mi South 8.1 mph - N/A   Overcast
7:56 PM 78.1 °F 77.0 °F 96% 30.11 in 5.0 mi SSE 5.8 mph - N/A Rain Light Rain
8:07 PM 78.1 °F 77.0 °F 96% 30.10 in 2.5 mi South 8.1 mph - N/A Rain Light Rain
8:14 PM 77.0 °F 77.0 °F 100% 30.09 in 1.5 mi SSE 11.5 mph - N/A Rain Light Rain
8:18 PM 77.0 °F 75.9 °F 96% 30.09 in 4.0 mi SSE 8.1 mph - N/A Rain Light Rain
8:28 PM 77.0 °F 77.0 °F 100% 30.09 in 8.0 mi SSE 5.8 mph - N/A   Overcast
8:56 PM 78.1 °F 77.0 °F 96% 30.11 in 10.0 mi South 5.8 mph - N/A Rain Light Rain
9:03 PM 78.1 °F 77.0 °F 96% 30.10 in 10.0 mi South 4.6 mph - N/A   Overcast
9:56 PM 78.1 °F 77.0 °F 96% 30.12 in 5.0 mi South 8.1 mph 19.6 mph N/A Rain Light Rain
10:56 PM 77.0 °F 75.9 °F 96% 30.11 in 10.0 mi South 8.1 mph - N/A   Clear
11:56 PM 75.9 °F 75.0 °F 97% 30.11 in 9.0 mi SSW 4.6 mph - N/A   Partly Cloudy